Home > Weather > Fayetteville > Past weeks

Flag for USA Past Weather in Fayetteville, North Carolina, USA — Yesterday and Last 2 Weeks

Now
73 °F

Passing clouds.


Feels Like: 75 °F
Forecast: 64 / 87 °F
Wind: 9 mph from South

Location: Fayetteville Regional Airport

Current Time: May 26, 2016 at 12:43:33 AM

Latest Report: May 25, 2016 at 11:53 PM


Visibility: 10 mi

Pressure: 30.16 "Hg

Humidity: 69%

Dew Point: 62 °F

Location of FayettevilleLocation

Past Weather in Fayetteville — Graph

°F

Fayetteville Temperature Yesterday

Maximum temperature yesterday: 88 °F (at 2:53 PM)
Minimum temperature yesterday: 60 °F (at 5:53 AM)
Average temperature yesterday: 75 °F

High & Low Weather Summary for the Past Weeks

 TemperatureHumidityPressure
High88 °F (May 25, 2:53 PM)96% (May 21, 4:53 AM)30.26 "Hg (May 21, 4:53 AM)
Low48 °F (May 16, 5:53 AM)26% (May 15, 4:53 PM)29.71 "Hg (May 14, 5:53 PM)
Average68 °F71%30.02 "Hg
* Reported May 10 10:53 PM — May 25 10:53 PM, Fayetteville, Weather by CustomWeather, © 2016

Note: Actual official high and low records may vary slightly from our data, if they occured in-between our weather recording intervals... More about our weather records

Advertising

Fayetteville Weather History for the Previous 24 Hours

Scroll right to see more
 ConditionsComfort  
Time TempWeatherWind HumidityBarometerVisibility
10:53 PM
Wed, May 25
74 °FPassing clouds.8 mph67%30.15 "Hg10 mi
9:53 PM77 °FPassing clouds.10 mph58%30.14 "Hg10 mi
8:53 PM79 °FPassing clouds.7 mph48%30.13 "Hg10 mi
7:53 PM82 °FPassing clouds.6 mph44%30.12 "Hg10 mi
6:53 PM85 °FSunny.7 mph36%30.11 "Hg10 mi
5:53 PM87 °FSunny.10 mph32%30.13 "Hg10 mi
4:53 PM87 °FSunny.9 mph33%30.14 "Hg10 mi
3:53 PM88 °FScattered clouds.12 mph33%30.15 "Hg10 mi
2:53 PM88 °FScattered clouds.10 mph30%30.16 "Hg10 mi
1:53 PM87 °FScattered clouds.7 mph30%30.17 "Hg10 mi
12:53 PM85 °FSunny.5 mph35%30.19 "Hg10 mi
11:53 AM84 °FSunny.3 mph43%30.20 "Hg10 mi
10:53 AM80 °FSunny.6 mph52%30.20 "Hg10 mi
9:53 AM76 °FSunny.7 mph64%30.21 "Hg10 mi
8:53 AM71 °FPassing clouds.3 mph76%30.21 "Hg10 mi
7:53 AM66 °FSunny.3 mph81%30.19 "Hg10 mi
6:53 AM61 °FClear.3 mph87%30.18 "Hg10 mi
5:53 AM60 °FClear.No wind86%30.16 "Hg10 mi
4:53 AM61 °FClear.3 mph87%30.16 "Hg10 mi
3:53 AM61 °FClear.6 mph83%30.16 "Hg10 mi
2:53 AM63 °FClear.6 mph81%30.15 "Hg10 mi
1:53 AM63 °FClear.7 mph78%30.14 "Hg10 mi
12:53 AM65 °FClear.7 mph76%30.14 "Hg10 mi
Weather by CustomWeather, © 2016

See weather overviewHow to use our weather pages